Simultaneous Nadir Overpasses (SNOs) Predictions

Prediction of SNOs between LANDSAT-8 and METOP-B Satellite Orbit:

Table of predicted SNOs for the next 14.0 days since TLE Epoch: 1/5/2025
Index Date (LANDSAT-8) Time (LANDSAT-8) Lat,Lon (LANDSAT-8) SZA (LANDSAT-8 ) Date (METOP-B) Time (METOP-B) Lat,Lon (METOP-B) SZA (METOP-B ) Distance(km) Time Diff (sec)
1 01/07/2025 00:00:06 -81.43, 45.14 73.99 01/06/2025 23:59:27 -81.43, 45.29 73.99 2.49 39
2 01/07/2025 00:49:32 81.43,-147.09 106.03 01/07/2025 00:50:07 81.43,-147.01 106.05 1.23 35
3 01/09/2025 19:34:22 -81.43, 111.59 74.41 01/09/2025 19:34:04 -81.43, 111.77 74.39 3.00 18
4 01/09/2025 20:23:48 81.43, -80.67 105.61 01/09/2025 20:24:44 81.43, -80.58 105.64 1.56 56
5 01/12/2025 14:19:09 81.42, 10.29 105.12 01/12/2025 14:18:00 81.42, 10.22 105.09 1.19 69
6 01/12/2025 15:08:36 -81.42, 177.88 74.89 01/12/2025 15:08:40 -81.43, 178.04 74.87 2.85 4
7 01/15/2025 09:53:22 81.42, 76.80 104.61 01/15/2025 09:52:36 81.42, 76.65 104.58 2.48 46
8 01/15/2025 10:42:49 -81.42,-115.60 75.41 01/15/2025 10:43:16 -81.43,-115.49 75.38 1.81 27
9 01/18/2025 05:27:34 81.42, 143.16 104.03 01/18/2025 05:27:11 81.43, 143.28 104.03 2.16 23



Historial Predications of SNOs between LANDSAT-8 and METOP-B
